JCSAT-13

Last updated on Sat Aug 15 2026 00:02:58 GMT+0000 (Coordinated Universal Time)

1 38331U 12023A 26226.58468354 .00000000 00000+0 00000+0 0 9995 2 38331 0.0157 226.6817 0003154 290.2190 140.6003 1.00268473 52126
UTC large
Height (km)
Speed (km/s)
/
Latitude / Longitude
Inclination (degrees)
Orbital Period (minutes)
Azimuth
Elevation
Range (km)
Doppler Factor

Next 0 passes for location: London (51.5072 / 0.1276)

No passes found over London.
JCSAT-13